| time (UTC) | temp F | wind direction | speed MPH | gust MPH | rain 1hr in | rain 24hr in | rain mn in | humidity % | barometer mb |
| 20260831094036 | 62 | 0.0 | 1.0 | 0.00 | 0.00 | 0.00 | 89 | 1018.9 | |
| 20260831093016 | 62 | 0.0 | 0.0 | 0.00 | 0.00 | 0.00 | 89 | 1018.8 | |
| 20260831092036 | 62 | 0.0 | 0.0 | 0.00 | 0.00 | 0.00 | 89 | 1018.8 | |
| 20260831091016 | 62 | 0.0 | 0.0 | 0.00 | 0.00 | 0.00 | 88 | 1018.6 | |
| 20260831090016 | 63 | 0.0 | 0.0 | 0.00 | 0.00 | 0.00 | 87 | 1018.5 | |
| 20260831085016 | 63 | 0.0 | 0.0 | 0.00 | 0.00 | 0.00 | 87 | 1018.3 | |
| 20260831084016 | 64 | 0.0 | 0.0 | 0.00 | 0.00 | 0.00 | 86 | 1018.2 | |
| 20260831083016 | 64 | 0.0 | 0.0 | 0.00 | 0.00 | 0.00 | 86 | 1018.1 | |
| 20260831082015 | 64 | 0.0 | 0.0 | 0.00 | 0.00 | 0.00 | 85 | 1018.1 | |
| 20260831081016 | 65 | 0.0 | 0.0 | 0.00 | 0.00 | 0.00 | 84 | 1018.0 | |
| 20260831080016 | 65 | 0.0 | 0.0 | 0.00 | 0.00 | 0.00 | 84 | 1018.0 | |
| 20260831075016 | 65 | 0.0 | 2.0 | 0.00 | 0.00 | 0.00 | 84 | 1017.9 | |
| 20260831074015 | 66 | 0 | 1.0 | 3.0 | 0.00 | 0.00 | 0.00 | 84 | 1017.7 |
| 20260831073016 | 66 | 0 | 1.0 | 2.0 | 0.00 | 0.00 | 0.00 | 83 | 1017.7 |
| 20260831072036 | 66 | 0 | 1.0 | 4.0 | 0.00 | 0.00 | 0.00 | 82 | 1017.7 |
| 20260831071015 | 66 | 338 | 1.0 | 3.0 | 0.00 | 0.00 | 0.00 | 82 | 1017.8 |
| 20260831070015 | 67 | 0.0 | 2.0 | 0.00 | 0.00 | 0.00 | 82 | 1017.7 | |
| 20260831065015 | 67 | 338 | 1.0 | 3.0 | 0.00 | 0.00 | 0.00 | 81 | 1017.7 |
| 20260831064036 | 67 | 338 | 1.0 | 3.0 | 0.00 | 0.00 | 0.00 | 80 | 1017.7 |
| 20260831063016 | 68 | 0.0 | 0.0 | 0.00 | 0.00 | 0.00 | 79 | 1017.7 | |
| 20260831062016 | 68 | 0.0 | 0.0 | 0.00 | 0.00 | 0.00 | 78 | 1017.6 | |
| 20260831061015 | 68 | 0.0 | 0.0 | 0.00 | 0.00 | 0.00 | 78 | 1017.5 | |
| 20260831060015 | 69 | 0.0 | 0.0 | 0.00 | 0.00 | 0.00 | 78 | 1017.4 | |
| 20260831055015 | 69 | 0.0 | 2.0 | 0.00 | 0.00 | 0.00 | 77 | 1017.3 | |
| 20260831054015 | 69 | 0.0 | 2.0 | 0.00 | 0.00 | 0.00 | 77 | 1017.4 | |
| 20260831053015 | 69 | 338 | 1.0 | 4.0 | 0.00 | 0.00 | 0.00 | 76 | 1017.3 |
| 20260831052015 | 70 | 338 | 1.0 | 4.0 | 0.00 | 0.00 | 0.00 | 76 | 1017.3 |
| 20260831051015 | 70 | 0.0 | 0.0 | 0.00 | 0.00 | 0.00 | 75 | 1017.2 | |
| 20260831050015 | 70 | 0.0 | 2.0 | 0.00 | 0.00 | 0.00 | 74 | 1017.0 | |
| 20260831045016 | 71 | 338 | 1.0 | 3.0 | 0.00 | 0.00 | 0.00 | 74 | 1016.9 |
| 20260831044015 | 71 | 338 | 1.0 | 3.0 | 0.00 | 0.00 | 0.00 | 74 | 1016.8 |
| 20260831043015 | 71 | 338 | 1.0 | 4.0 | 0.00 | 0.00 | 0.00 | 73 | 1016.8 |
| 20260831042015 | 71 | 0 | 2.0 | 6.0 | 0.00 | 0.00 | 0.00 | 73 | 1016.7 |
| 20260831041015 | 72 | 0 | 1.0 | 5.0 | 0.00 | 0.00 | 0.00 | 72 | 1016.6 |
| 20260831040017 | 72 | 0 | 1.0 | 3.0 | 0.00 | 0.00 | 0.00 | 72 | 1016.6 |
| 20260831035016 | 72 | 0 | 1.0 | 4.0 | 0.00 | 0.00 | 0.00 | 71 | 1016.5 |
| 20260831034015 | 72 | 315 | 2.0 | 7.0 | 0.00 | 0.00 | 0.00 | 71 | 1016.6 |
| 20260831033016 | 73 | 315 | 2.0 | 4.0 | 0.00 | 0.00 | 0.00 | 71 | 1016.6 |
| 20260831032015 | 73 | 338 | 2.0 | 6.0 | 0.00 | 0.00 | 0.00 | 72 | 1016.8 |
| 20260831031016 | 73 | 338 | 1.0 | 3.0 | 0.00 | 0.00 | 0.00 | 73 | 1016.7 |
| 20260831030015 | 73 | 0.0 | 2.0 | 0.00 | 0.00 | 0.00 | 73 | 1016.6 | |
| 20260831025036 | 73 | 315 | 1.0 | 5.0 | 0.00 | 0.00 | 0.00 | 73 | 1016.5 |
| 20260831024016 | 73 | 293 | 1.0 | 4.0 | 0.00 | 0.00 | 0.00 | 74 | 1016.6 |
| 20260831023036 | 73 | 270 | 1.0 | 5.0 | 0.00 | 0.00 | 0.00 | 74 | 1016.6 |
| 20260831022016 | 73 | 338 | 1.0 | 3.0 | 0.00 | 0.00 | 0.00 | 75 | 1016.7 |
| 20260831021015 | 73 | 293 | 1.0 | 4.0 | 0.00 | 0.00 | 0.00 | 75 | 1016.6 |
| 20260831020016 | 73 | 248 | 1.0 | 3.0 | 0.00 | 0.00 | 0.00 | 75 | 1016.5 |
| 20260831015016 | 74 | 0.0 | 2.0 | 0.00 | 0.00 | 0.00 | 75 | 1016.4 | |
| 20260831014016 | 74 | 225 | 1.0 | 6.0 | 0.00 | 0.00 | 0.00 | 74 | 1016.3 |
| 20260831013015 | 74 | 225 | 1.0 | 3.0 | 0.00 | 0.00 | 0.00 | 73 | 1016.3 |
| 20260831012016 | 74 | 225 | 1.0 | 5.0 | 0.00 | 0.00 | 0.00 | 73 | 1016.1 |
| 20260831011015 | 74 | 225 | 1.0 | 5.0 | 0.00 | 0.00 | 0.00 | 72 | 1016.0 |
| 20260831010015 | 74 | 180 | 1.0 | 5.0 | 0.00 | 0.00 | 0.00 | 72 | 1016.0 |
| 20260831005016 | 74 | 203 | 2.0 | 8.0 | 0.00 | 0.00 | 0.00 | 72 | 1015.9 |
| 20260831004015 | 74 | 225 | 1.0 | 6.0 | 0.00 | 0.00 | 0.00 | 71 | 1015.7 |
| 20260831003016 | 75 | 248 | 1.0 | 4.0 | 0.00 | 0.00 | 0.00 | 70 | 1015.7 |
| 20260831002015 | 75 | 248 | 1.0 | 4.0 | 0.00 | 0.00 | 0.00 | 69 | 1015.6 |
| 20260831001035 | 75 | 225 | 1.0 | 3.0 | 0.00 | 0.00 | 0.00 | 69 | 1015.4 |
| 20260831000015 | 75 | 225 | 2.0 | 4.0 | 0.00 | 0.00 | 0.00 | 68 | 1015.4 |
| 20260830235016 | 75 | 225 | 2.0 | 5.0 | 0.00 | 0.00 | 0.00 | 67 | 1015.2 |
| 20260830234035 | 75 | 225 | 1.0 | 4.0 | 0.00 | 0.00 | 0.00 | 65 | 1015.2 |
| 20260830233015 | 75 | 203 | 1.0 | 3.0 | 0.00 | 0.00 | 0.00 | 63 | 1015.2 |
| 20260830232015 | 75 | 180 | 1.0 | 4.0 | 0.00 | 0.00 | 0.00 | 62 | 1015.1 |
| 20260830231016 | 76 | 158 | 1.0 | 5.0 | 0.00 | 0.00 | 0.00 | 61 | 1015.2 |
| 20260830230017 | 76 | 0.0 | 2.0 | 0.00 | 0.00 | 0.00 | 60 | 1015.3 | |
| 20260830225017 | 76 | 203 | 1.0 | 3.0 | 0.00 | 0.00 | 0.00 | 59 | 1015.4 |
| 20260830224017 | 76 | 203 | 1.0 | 4.0 | 0.00 | 0.00 | 0.00 | 59 | 1015.5 |
| 20260830223037 | 77 | 248 | 1.0 | 4.0 | 0.00 | 0.00 | 0.00 | 58 | 1015.5 |
| 20260830222017 | 77 | 203 | 2.0 | 6.0 | 0.00 | 0.00 | 0.00 | 58 | 1015.6 |
| 20260830221037 | 77 | 225 | 2.0 | 6.0 | 0.00 | 0.00 | 0.00 | 57 | 1015.6 |
| 20260830220017 | 77 | 248 | 1.0 | 5.0 | 0.00 | 0.00 | 0.00 | 57 | 1015.7 |
| 20260830215017 | 77 | 225 | 1.0 | 5.0 | 0.00 | 0.00 | 0.00 | 58 | 1015.6 |
| 20260830214017 | 77 | 180 | 1.0 | 6.0 | 0.00 | 0.00 | 0.00 | 58 | 1015.6 |
| 20260830213017 | 77 | 203 | 2.0 | 9.0 | 0.00 | 0.00 | 0.00 | 59 | 1015.6 |
| 20260830212017 | 78 | 225 | 1.0 | 3.0 | 0.00 | 0.00 | 0.00 | 59 | 1015.9 |
| 20260830211017 | 78 | 225 | 1.0 | 3.0 | 0.00 | 0.00 | 0.00 | 59 | 1015.9 |
| 20260830210035 | 78 | 225 | 1.0 | 6.0 | 0.00 | 0.00 | 0.00 | 58 | 1015.9 |
| 20260830205057 | 78 | 248 | 1.0 | 5.0 | 0.00 | 0.00 | 0.00 | 59 | 1015.8 |
| 20260830204017 | 78 | 225 | 1.0 | 4.0 | 0.00 | 0.00 | 0.00 | 59 | 1015.8 |
| 20260830203017 | 78 | 203 | 2.0 | 5.0 | 0.00 | 0.00 | 0.00 | 58 | 1016.0 |
| 20260830202037 | 78 | 293 | 1.0 | 6.0 | 0.00 | 0.00 | 0.00 | 58 | 1016.0 |
| 20260830201017 | 78 | 248 | 1.0 | 5.0 | 0.00 | 0.00 | 0.00 | 58 | 1016.2 |
| 20260830200017 | 78 | 225 | 2.0 | 6.0 | 0.00 | 0.00 | 0.00 | 57 | 1016.2 |
| 20260830195017 | 78 | 203 | 2.0 | 5.0 | 0.00 | 0.00 | 0.00 | 56 | 1016.3 |
| 20260830194037 | 78 | 248 | 2.0 | 5.0 | 0.00 | 0.00 | 0.00 | 54 | 1016.5 |
| 20260830193017 | 79 | 248 | 3.0 | 10.0 | 0.00 | 0.00 | 0.00 | 54 | 1016.7 |
| 20260830192017 | 79 | 270 | 2.0 | 7.0 | 0.00 | 0.00 | 0.00 | 53 | 1016.8 |
| 20260830191017 | 80 | 203 | 2.0 | 7.0 | 0.00 | 0.00 | 0.00 | 52 | 1017.0 |
| 20260830190017 | 80 | 225 | 2.0 | 8.0 | 0.00 | 0.00 | 0.00 | 52 | 1017.1 |
| 20260830185017 | 81 | 203 | 2.0 | 5.0 | 0.00 | 0.00 | 0.00 | 52 | 1017.1 |
| 20260830184017 | 82 | 270 | 1.0 | 5.0 | 0.00 | 0.00 | 0.00 | 50 | 1017.1 |
| 20260830183037 | 82 | 248 | 2.0 | 4.0 | 0.00 | 0.00 | 0.00 | 49 | 1017.1 |
| 20260830182017 | 82 | 315 | 2.0 | 7.0 | 0.00 | 0.00 | 0.00 | 48 | 1017.3 |
| 20260830181017 | 82 | 315 | 2.0 | 6.0 | 0.00 | 0.00 | 0.00 | 49 | 1017.4 |
| 20260830180017 | 81 | 315 | 1.0 | 5.0 | 0.00 | 0.00 | 0.00 | 50 | 1017.5 |
| 20260830175016 | 81 | 315 | 3.0 | 10.0 | 0.00 | 0.00 | 0.00 | 50 | 1017.7 |
| 20260830174017 | 81 | 248 | 2.0 | 8.0 | 0.00 | 0.00 | 0.00 | 51 | 1017.7 |
| 20260830173017 | 81 | 203 | 3.0 | 10.0 | 0.00 | 0.00 | 0.00 | 51 | 1018.0 |
| 20260830172017 | 81 | 225 | 3.0 | 8.0 | 0.00 | 0.00 | 0.00 | 50 | 1018.0 |
| 20260830171017 | 80 | 180 | 2.0 | 4.0 | 0.00 | 0.00 | 0.00 | 52 | 1018.1 |
| 20260830170017 | 79 | 270 | 3.0 | 10.0 | 0.00 | 0.00 | 0.00 | 52 | 1018.0 |
| 20260830165017 | 79 | 203 | 3.0 | 6.0 | 0.00 | 0.00 | 0.00 | 51 | 1018.1 |
| 20260830164017 | 80 | 203 | 3.0 | 8.0 | 0.00 | 0.00 | 0.00 | 50 | 1018.4 |
| 20260830163017 | 81 | 248 | 2.0 | 7.0 | 0.00 | 0.00 | 0.00 | 49 | 1018.4 |
| 20260830162016 | 80 | 248 | 3.0 | 13.0 | 0.00 | 0.00 | 0.00 | 50 | 1018.3 |
| 20260830161037 | 80 | 248 | 2.0 | 7.0 | 0.00 | 0.00 | 0.00 | 50 | 1018.5 |
| 20260830160016 | 81 | 293 | 3.0 | 10.0 | 0.00 | 0.00 | 0.00 | 49 | 1018.5 |
| 20260830155016 | 82 | 225 | 3.0 | 13.0 | 0.00 | 0.00 | 0.00 | 47 | 1018.6 |
| 20260830154016 | 83 | 225 | 3.0 | 8.0 | 0.00 | 0.00 | 0.00 | 50 | 1018.5 |
| 20260830153017 | 83 | 225 | 3.0 | 9.0 | 0.00 | 0.00 | 0.00 | 49 | 1018.5 |
| 20260830152017 | 82 | 225 | 2.0 | 5.0 | 0.00 | 0.00 | 0.00 | 50 | 1018.6 |
| 20260830151016 | 81 | 225 | 3.0 | 8.0 | 0.00 | 0.00 | 0.00 | 50 | 1018.9 |
| 20260830150017 | 81 | 225 | 2.0 | 7.0 | 0.00 | 0.00 | 0.00 | 52 | 1019.0 |
| 20260830145016 | 81 | 225 | 2.0 | 6.0 | 0.00 | 0.00 | 0.00 | 53 | 1018.8 |
| 20260830144016 | 80 | 225 | 2.0 | 7.0 | 0.00 | 0.00 | 0.00 | 53 | 1018.8 |
| 20260830143036 | 79 | 225 | 2.0 | 5.0 | 0.00 | 0.00 | 0.00 | 53 | 1019.0 |
| 20260830142016 | 78 | 225 | 2.0 | 6.0 | 0.00 | 0.00 | 0.00 | 54 | 1019.0 |
| 20260830141016 | 78 | 225 | 2.0 | 6.0 | 0.00 | 0.00 | 0.00 | 55 | 1019.1 |
| 20260830140036 | 77 | 203 | 3.0 | 7.0 | 0.00 | 0.00 | 0.00 | 57 | 1019.4 |
| 20260830135036 | 76 | 225 | 2.0 | 5.0 | 0.00 | 0.00 | 0.00 | 59 | 1019.5 |
| 20260830134016 | 75 | 248 | 2.0 | 9.0 | 0.00 | 0.00 | 0.00 | 59 | 1019.3 |
| 20260830133016 | 74 | 203 | 2.0 | 5.0 | 0.00 | 0.00 | 0.00 | 60 | 1019.4 |
| 20260830132036 | 73 | 203 | 2.0 | 6.0 | 0.00 | 0.00 | 0.00 | 62 | 1019.4 |
| 20260830131016 | 72 | 225 | 1.0 | 4.0 | 0.00 | 0.00 | 0.00 | 63 | 1019.5 |
| 20260830130016 | 72 | 203 | 1.0 | 4.0 | 0.00 | 0.00 | 0.00 | 64 | 1019.7 |
| 20260830125016 | 71 | 180 | 1.0 | 3.0 | 0.00 | 0.00 | 0.00 | 67 | 1019.7 |
| 20260830124016 | 70 | 203 | 1.0 | 4.0 | 0.00 | 0.00 | 0.00 | 69 | 1019.8 |
| 20260830123016 | 68 | 248 | 1.0 | 4.0 | 0.00 | 0.00 | 0.00 | 72 | 1019.8 |
| 20260830122016 | 66 | 203 | 1.0 | 3.0 | 0.00 | 0.00 | 0.00 | 74 | 1019.9 |
| 20260830121016 | 65 | 0.0 | 3.0 | 0.00 | 0.00 | 0.00 | 77 | 1020.0 | |
| 20260830120016 | 63 | 0.0 | 2.0 | 0.00 | 0.00 | 0.00 | 79 | 1020.0 | |
| 20260830115036 | 62 | 180 | 1.0 | 3.0 | 0.00 | 0.00 | 0.00 | 80 | 1020.0 |
| 20260830114016 | 62 | 180 | 1.0 | 3.0 | 0.00 | 0.00 | 0.00 | 81 | 1020.1 |
| 20260830113016 | 61 | 0.0 | 2.0 | 0.00 | 0.00 | 0.00 | 81 | 1020.1 | |
| 20260830112016 | 61 | 0.0 | 2.0 | 0.00 | 0.00 | 0.00 | 82 | 1020.0 | |
| 20260830111016 | 61 | 0.0 | 4.0 | 0.00 | 0.00 | 0.00 | 82 | 1020.0 | |
| 20260830110016 | 60 | 0.0 | 3.0 | 0.00 | 0.00 | 0.00 | 82 | 1020.0 | |
| 20260830105016 | 60 | 0.0 | 3.0 | 0.00 | 0.00 | 0.00 | 82 | 1020.1 | |
| 20260830104016 | 60 | 203 | 1.0 | 3.0 | 0.00 | 0.00 | 0.00 | 82 | 1020.1 |
| 20260830103016 | 60 | 0.0 | 2.0 | 0.00 | 0.00 | 0.00 | 82 | 1020.0 | |
| 20260830102016 | 60 | 0.0 | 2.0 | 0.00 | 0.00 | 0.00 | 82 | 1020.1 | |
| 20260830101036 | 60 | 0.0 | 1.0 | 0.00 | 0.00 | 0.00 | 82 | 1020.2 | |
| 20260830100056 | 61 | 0.0 | 3.0 | 0.00 | 0.00 | 0.00 | 82 | 1020.1 | |
| 20260830095036 | 61 | 0.0 | 2.0 | 0.00 | 0.00 | 0.00 | 81 | 1020.1 |